铱星星座 104星 (IRIDIUM 104)

导读

IRIDIUM 104,即铱星-下一代104,是美国铱星公司运营的下一代低轨通信卫星,于2017年1月14日由猎鹰9号火箭从范登堡空军基地发射升空。卫星重860kg,运行于高度约780公里、倾角86.4°的近极轨,设计寿命10年,计划工作15年,属于铱星下一代通信星座,主要提供全球语音与数据通信服务。

Basic Information
目录编号:
41922
目录名称:
IRIDIUM 104
国际标识:
2017-003F
轨道中心:
EARTH
卫星名称:
铱星星座 104星
卫星全名:
铱星星座 104星 (IRIDIUM 104)
卫星状态:
在轨 (已飞行3527 天)
发射日期:
2017-01-14 UTC
国别 :
美国 (US)
星等 :
--
Orbit Information
数据来源 国际轨道数据 AOE轨道数据
星历时间 2026-09-11T03:34:32+0800
9小时前
查看轨道信息
2026-09-10T08:00:00+0800
1天前
查看轨道信息
半长轴 7155.805km 7155.794km
偏心率 0.000242 0.0002381
轨道倾角 86.394° 86.394°
近地点辐角 95.862° 85.942°
升交点赤经 52.652° 52.994°
平近点角 264.286° 25.542°
近地点 775.936km 775.953km
远地点 779.4km 779.361km
周期 100.403分钟 100.403分钟
每日圈数 14.342176 14.34221
Detailed Information
平衡模式:
三轴稳定
覆盖范围:
全球
运营商:
铱星通信公司
运营商所在国:
美国
制造商(研发单位):
阿莱尼亚宇航公司
制造商所在国:
意大利
使用方式:
暂无
Satellite Introduction
铱星(Iridium)是由共66个运作中的通信卫星组成的卫星通信系统。这个系统原本规划77个通信卫星,所以用原子序数为77的铱元素来命名。铱卫星允许人们使用手持型电子设备进行全球性的语音及数据通讯。该卫星仍在工作。
2D Orbit Map
3D Orbit Map
Orbit Altitude Analysis Chart
Orbit Inclination Analysis Chart
Orbit Comprehensive Analysis Chart
View Comprehensive Chart
Conjunction Data List
Event ID Objects TCA Miss Dist (km) Collision Risk Probability Collision Risk Index (CRI) Action
CDM_260911-191204-192204-870527
2026-09-11T
19:12:58+0000
1.041 km
极远距离
2.374731E-5 中风险 0.63
CDM_260911-182204-192204-870527
2026-09-11T
18:22:45+0000
2.496 km
极远距离
1.766711E-6 低风险 0.4
Miss Distance Evolution Trend with All Objects
Collision Probability Evolution Trend with All Objects